Location: Wellington
(41.3000°S, 174.7830°E)
Time: 23:45:53
(UTC+13:00)

Resurs 01 Rocket - Pass Details

Date: 24 January 2019
Orbit: 635 x 644 km, 98.0° (Epoch: 17 October)

Event Time Altitude Azimuth Distance (km) Brightness Sun altitude
Rises 21:36:05 0° 154° (SSE) 2,976 5.2 -8.4°
Reaches altitude 10° 21:38:41 10° 139° (SE) 2,056 4.2 -8.8°
Maximum altitude 21:42:18 24° 86° (E) 1,346 2.8 -9.3°
Enters shadow 21:45:35 11° 34° (NE) 1,936 3.5 -9.8°
